TimeCDT,TemperatureF,Dew PointF,Humidity,Sea Level PressureIn,VisibilityMPH,Wind Direction,Wind SpeedMPH,Gust SpeedMPH,PrecipitationIn,Events,Conditions,WindDirDegrees,DateUTC
12:15 AM,57.9,54.5,88,29.90,10.0,Calm,Calm,-,N/A,,Overcast,0,2012-10-03 05:15:00
12:35 AM,58.1,54.7,88,29.90,10.0,SW,3.5,-,N/A,,Overcast,230,2012-10-03 05:35:00
12:55 AM,58.1,54.5,88,29.90,10.0,West,3.5,-,N/A,,Overcast,260,2012-10-03 05:55:00
1:15 AM,58.1,54.5,88,29.91,10.0,WSW,4.6,-,N/A,,Overcast,250,2012-10-03 06:15:00
1:35 AM,58.1,54.5,88,29.91,10.0,SW,5.8,-,N/A,,Overcast,230,2012-10-03 06:35:00
1:55 AM,58.1,54.5,88,29.92,10.0,SW,5.8,-,N/A,,Overcast,230,2012-10-03 06:55:00
2:15 AM,58.1,54.5,88,29.93,10.0,WSW,4.6,-,N/A,,Overcast,240,2012-10-03 07:15:00
2:35 AM,57.7,54.5,89,29.93,10.0,SW,4.6,-,N/A,,Overcast,230,2012-10-03 07:35:00
2:55 AM,57.9,54.5,88,29.93,7.0,SW,4.6,-,N/A,,Overcast,230,2012-10-03 07:55:00
3:15 AM,58.1,54.1,87,29.93,7.0,SW,4.6,-,N/A,,Overcast,220,2012-10-03 08:15:00
3:35 AM,57.6,54.3,89,29.93,7.0,Calm,Calm,-,N/A,,Overcast,0,2012-10-03 08:35:00
3:55 AM,57.2,54.1,89,29.93,5.0,Calm,Calm,-,N/A,,Overcast,0,2012-10-03 08:55:00
4:15 AM,57.7,54.0,87,29.94,10.0,SW,3.5,-,N/A,,Overcast,230,2012-10-03 09:15:00
4:35 AM,58.1,53.2,84,29.94,10.0,SSW,5.8,-,N/A,,Overcast,210,2012-10-03 09:35:00
4:55 AM,58.1,52.9,83,29.96,10.0,SSW,4.6,-,N/A,,Overcast,200,2012-10-03 09:55:00
5:15 AM,58.1,53.1,83,29.96,10.0,SSW,5.8,-,N/A,,Overcast,200,2012-10-03 10:15:00
5:35 AM,58.1,52.7,82,29.97,10.0,SSW,5.8,-,N/A,,Overcast,210,2012-10-03 10:35:00
5:55 AM,58.5,52.2,80,29.97,10.0,SSW,5.8,-,N/A,,Overcast,200,2012-10-03 10:55:00
6:15 AM,59.0,52.0,78,29.98,10.0,SSW,6.9,-,N/A,,Overcast,200,2012-10-03 11:15:00
6:35 AM,59.0,50.9,74,29.99,10.0,SSW,6.9,-,N/A,,Overcast,210,2012-10-03 11:35:00
6:55 AM,58.6,50.5,74,29.99,10.0,SSW,5.8,-,N/A,,Overcast,200,2012-10-03 11:55:00
7:15 AM,58.8,50.5,74,30.00,10.0,South,5.8,-,N/A,,Overcast,190,2012-10-03 12:15:00
7:35 AM,58.6,50.7,75,30.00,10.0,South,4.6,-,N/A,,Overcast,180,2012-10-03 12:35:00
7:55 AM,59.0,50.9,74,30.00,10.0,South,5.8,-,N/A,,Overcast,190,2012-10-03 12:55:00
8:15 AM,59.5,51.3,74,30.01,10.0,SSW,4.6,-,N/A,,Overcast,200,2012-10-03 13:15:00
8:35 AM,60.4,51.1,71,30.01,10.0,SSW,5.8,-,N/A,,Overcast,210,2012-10-03 13:35:00
8:55 AM,61.0,51.1,70,30.01,10.0,South,6.9,-,N/A,,Overcast,180,2012-10-03 13:55:00
9:15 AM,61.7,51.1,68,30.01,10.0,South,5.8,-,N/A,,Overcast,190,2012-10-03 14:15:00
9:35 AM,63.5,51.3,64,30.02,10.0,South,4.6,-,N/A,,Overcast,190,2012-10-03 14:35:00
9:55 AM,63.7,51.1,64,30.02,10.0,South,6.9,-,N/A,,Overcast,190,2012-10-03 14:55:00
10:15 AM,64.6,51.1,62,30.02,10.0,South,3.5,-,N/A,,Overcast,170,2012-10-03 15:15:00
10:35 AM,68.0,51.8,56,30.02,10.0,South,4.6,-,N/A,,Overcast,170,2012-10-03 15:35:00
10:55 AM,70.2,50.5,50,30.02,10.0,SSE,4.6,-,N/A,,Overcast,160,2012-10-03 15:55:00
11:15 AM,70.7,48.4,45,30.02,10.0,SSW,9.2,-,N/A,,Overcast,200,2012-10-03 16:15:00
11:35 AM,71.8,48.0,43,30.02,10.0,SW,6.9,-,N/A,,Mostly Cloudy,230,2012-10-03 16:35:00
11:55 AM,73.2,48.4,41,30.01,10.0,SSW,9.2,-,N/A,,Scattered Clouds,200,2012-10-03 16:55:00
12:15 PM,73.4,47.7,40,30.01,10.0,South,5.8,-,N/A,,Clear,190,2012-10-03 17:15:00
12:35 PM,74.3,46.9,38,30.01,10.0,SSW,8.1,-,N/A,,Clear,200,2012-10-03 17:35:00
12:55 PM,74.5,47.3,38,30.01,10.0,South,9.2,-,N/A,,Clear,190,2012-10-03 17:55:00
1:15 PM,75.7,46.0,35,30.00,10.0,SSW,13.8,18.4,N/A,,Clear,210,2012-10-03 18:15:00
1:35 PM,75.9,44.4,33,30.00,10.0,SW,10.4,18.4,N/A,,Clear,220,2012-10-03 18:35:00
1:55 PM,76.3,44.4,32,29.99,10.0,SSW,13.8,20.7,N/A,,Scattered Clouds,210,2012-10-03 18:55:00
2:15 PM,76.6,40.8,28,29.99,10.0,SW,15.0,-,N/A,,Scattered Clouds,230,2012-10-03 19:15:00
2:35 PM,77.5,42.6,29,29.99,10.0,SW,11.5,-,N/A,,Scattered Clouds,220,2012-10-03 19:35:00
2:55 PM,77.2,42.3,29,29.99,10.0,SW,12.7,-,N/A,,Scattered Clouds,230,2012-10-03 19:55:00
3:15 PM,77.2,42.6,29,29.98,10.0,SW,12.7,16.1,N/A,,Scattered Clouds,220,2012-10-03 20:15:00
3:35 PM,77.0,42.8,29,29.98,10.0,SW,10.4,-,N/A,,Scattered Clouds,220,2012-10-03 20:35:00
3:55 PM,77.0,42.3,29,29.98,10.0,SW,10.4,-,N/A,,Scattered Clouds,230,2012-10-03 20:55:00
4:15 PM,77.2,42.4,29,29.99,10.0,SSW,10.4,-,N/A,,Scattered Clouds,210,2012-10-03 21:15:00
4:35 PM,75.4,43.9,32,30.00,10.0,SSW,6.9,-,N/A,,Scattered Clouds,200,2012-10-03 21:35:00
4:55 PM,75.9,44.6,33,30.00,10.0,South,8.1,-,N/A,,Scattered Clouds,170,2012-10-03 21:55:00
5:15 PM,74.7,47.5,38,30.00,10.0,South,9.2,-,N/A,,Scattered Clouds,180,2012-10-03 22:15:00
5:35 PM,73.4,49.3,42,30.00,10.0,South,5.8,-,N/A,,Scattered Clouds,170,2012-10-03 22:35:00
5:55 PM,73.4,50.4,44,30.01,10.0,South,4.6,-,N/A,,Mostly Cloudy,170,2012-10-03 22:55:00
6:15 PM,71.8,51.1,48,30.01,10.0,South,6.9,-,N/A,,Overcast,180,2012-10-03 23:15:00
6:35 PM,70.3,52.3,53,30.01,10.0,SSE,3.5,-,N/A,,Overcast,150,2012-10-03 23:35:00
6:55 PM,67.6,54.0,61,30.03,7.0,SW,10.4,-,N/A,Rain-Thunderstorm,Rain,230,2012-10-03 23:55:00
7:15 PM,62.8,52.3,69,30.05,7.0,SSW,18.4,25.3,0.14,Rain-Thunderstorm,Rain,210,2012-10-04 00:15:00
7:35 PM,61.2,52.0,72,30.04,5.0,SE,3.5,-,0.21,Rain-Thunderstorm,Heavy Thunderstorms and Rain,140,2012-10-04 00:35:00
7:55 PM,60.8,52.2,73,30.06,7.0,SSE,5.8,-,0.24,Rain,Rain,150,2012-10-04 00:55:00
8:15 PM,60.4,52.9,76,30.05,10.0,SE,5.8,-,N/A,Rain-Thunderstorm,Light Thunderstorms and Rain,130,2012-10-04 01:15:00
8:35 PM,60.3,53.6,79,30.05,10.0,ESE,3.5,-,N/A,,Scattered Clouds,120,2012-10-04 01:35:00
8:55 PM,60.1,55.0,83,30.05,10.0,SE,4.6,-,N/A,,Clear,140,2012-10-04 01:55:00
9:15 PM,60.3,55.4,84,30.06,10.0,SE,5.8,-,N/A,,Clear,140,2012-10-04 02:15:00
9:35 PM,60.1,55.4,85,30.07,10.0,South,3.5,-,N/A,Thunderstorm,Clear,170,2012-10-04 02:35:00
9:55 PM,59.0,55.4,88,30.08,10.0,SSE,5.8,-,N/A,,Clear,150,2012-10-04 02:55:00
10:15 PM,59.9,55.4,85,30.08,10.0,SE,4.6,-,N/A,,Clear,140,2012-10-04 03:15:00
10:35 PM,59.9,55.8,86,30.09,10.0,SSE,5.8,-,N/A,,Clear,150,2012-10-04 03:35:00
10:55 PM,59.9,55.4,85,30.10,10.0,SSE,5.8,-,N/A,,Clear,150,2012-10-04 03:55:00
11:15 PM,59.5,54.9,84,30.10,10.0,SSE,5.8,-,N/A,,Clear,150,2012-10-04 04:15:00
11:35 PM,59.4,54.5,84,30.10,10.0,SSE,5.8,-,N/A,,Clear,160,2012-10-04 04:35:00
11:55 PM,59.4,54.5,84,30.10,10.0,SSE,5.8,-,N/A,,Scattered Clouds,160,2012-10-04 04:55:00